Showing default

FLOCK 4Q 20, 58313

Orbit data source: Space-Track

FLOCK 4Q 20, 58313 is a payload satellite owned by Planet (US) in SSO that was launched on Sat, 11 Nov 2023 UTC via an FALCON 9 launch vehicle from the Air Force Western Test Range (AFWTR). Payload-class satellites include a variety of spacecraft equipped with specific instruments for various scientific and technological missions. These include communications satellites like Starlink; space stations such as the ISS; scientific satellites like the Hubble; Earth observation satellites from companies like Planet Labs, Umbra, and HawkEye 360; GPS; miniature CubeSats for education and research; and military/defense satellites.

Loading next visibility...
Identifier
58313, 2023-174BK
Orbit
SSO
Country
Flag of USUS
Related business
Manufacturer
Planet
Mission
Non-operational Commercial Imaging
Bus & Motor
CUBESAT 3U, Unknown motor
Mass
5.7 kg wet, 5.7 kg dry
Launch date (UTC)
2023-11-11 (2 years ago)
Launch vehicle
FALCON 9
Launch site
Air Force Western Test Range (AFWTR)
Object type
Payload
Rocket body
Debris
Shape & HBR
Box + 2 Pan, 1.0 m
Radar Cross Section
0.072 m², Medium (>0.1 m² and < 1m²)

Expand to show TLE details & history
Last TLE update: 7 hours ago

TLE from 7 hours ago
0 FLOCK 4Q 20
1 58313U 23174BK  26126.82147338  .00311906  00000-0  12950-2 0  9999
2 58313  97.3842 222.4294 0010564 250.8040 109.2087 15.84909485139682
Epoch: 2026-05-06T19:42Z
TLE epoch observation values (Epoch: 2026-05-06T19:42:55.300Z)
Latitude
-0.00002°
Longitude
62.02252°
Altitude
322.092 km
Speed
7.714 km/s
True Right ascension
14h 49m 43s
True Declination
0° 00' 00"
Sunlit
Object was in full shadow at epoch
Visualization orbit readout
Latitude
Unknown
Longitude
Unknown
Altitude
Unknown
Speed
Unknown
Apparent Right ascension
Unknown
Apparent Declination
Unknown
Sunlit
N/A
Visualization observer readout
Local Sidereal Time
10:21:29
Azimuth
Unknown
Elevation
Unknown
Doppler factor
Unknown
Orbital elements
Apogee altitude
320.528 km
Perigee altitude
306.39 km
Semi-major axis
6,691.596 km
Eccentricity
0.00106
Inclination
97.3842°
RAAN
222.4294°
Arg. of periapsis
250.804°
True anomaly
109.32297°
Mean anomaly
109.2087°
Eccentric anomaly
109.26584°
Mean motion
3.96505 °/min
Orbital period
90.79 mins
BSTAR
0.001295
Loading maneuver chart data...
Computing Atmospheric mass density...
Loading historical data...
Loading historical data...
Loading historical data...
Loading historical data...
Loading historical data...
Loading historical data...
Loading historical data...

Documentation

Showing up to 5 results
|